| time (UTC) | temp F | wind direction | speed MPH | gust MPH | rain 1hr in | rain 24hr in | rain mn in | humidity % | barometer mb |
| 20260505193051 | 70 | 148 | 0.0 | 5.0 | 0.00 | 0.00 | 0.00 | 61 | 1014.4 |
| 20260505191550 | 68 | 98 | 0.0 | 4.0 | 0.00 | 0.00 | 0.00 | 63 | 1014.4 |
| 20260505190049 | 68 | 126 | 0.0 | 3.0 | 0.00 | 0.00 | 0.00 | 64 | 1014.6 |
| 20260505184552 | 68 | 131 | 0.0 | 6.0 | 0.00 | 0.00 | 0.00 | 63 | 1014.5 |
| 20260505183050 | 68 | 212 | 0.0 | 5.0 | 0.00 | 0.00 | 0.00 | 64 | 1014.5 |
| 20260505181542 | 67 | 136 | 0.0 | 4.0 | 0.00 | 0.00 | 0.00 | 65 | 1014.5 |
| 20260505180040 | 67 | 137 | 0.0 | 2.0 | 0.00 | 0.00 | 0.00 | 66 | 1014.5 |
| 20260505174536 | 66 | 117 | 0.0 | 4.0 | 0.00 | 0.00 | 0.00 | 67 | 1014.4 |
| 20260505173035 | 66 | 84 | 0.0 | 2.0 | 0.00 | 0.00 | 0.00 | 68 | 1014.3 |
| 20260505171523 | 66 | 219 | 0.0 | 5.0 | 0.00 | 0.00 | 0.00 | 68 | 1014.3 |
| 20260505170021 | 65 | 184 | 0.0 | 3.0 | 0.00 | 0.00 | 0.00 | 70 | 1014.3 |
| 20260505164520 | 65 | 212 | 0.0 | 4.0 | 0.00 | 0.00 | 0.00 | 69 | 1014.2 |
| 20260505163017 | 65 | 225 | 0.0 | 0.0 | 0.00 | 0.00 | 0.00 | 69 | 1014.2 |
| 20260505161514 | 63 | 172 | 0.0 | 3.0 | 0.00 | 0.00 | 0.00 | 72 | 1014.1 |
| 20260505153008 | 59 | 69 | 1.0 | 4.0 | 0.00 | 0.00 | 0.00 | 77 | 1014.0 |
| 20260505151517 | 59 | 215 | 0.0 | 3.0 | 0.00 | 0.00 | 0.00 | 77 | 1013.9 |
| 20260505150115 | 59 | 46 | 0.0 | 2.0 | 0.00 | 0.00 | 0.00 | 78 | 1013.7 |
| 20260505124544 | 55 | 56 | 0.0 | 0.0 | 0.00 | 0.00 | 0.00 | 82 | 1012.2 |
| 20260505123144 | 55 | 53 | 0.0 | 0.0 | 0.00 | 0.00 | 0.00 | 81 | 1012.0 |
| 20260505121533 | 55 | 53 | 0.0 | 0.0 | 0.00 | 0.00 | 0.00 | 80 | 1011.9 |
| 20260505120031 | 55 | 53 | 0.0 | 0.0 | 0.00 | 0.00 | 0.00 | 80 | 1011.8 |
| 20260505114523 | 55 | 53 | 0.0 | 0.0 | 0.00 | 0.00 | 0.00 | 79 | 1011.6 |
| 20260505113019 | 56 | 53 | 0.0 | 0.0 | 0.00 | 0.00 | 0.00 | 76 | 1011.4 |
| 20260505111519 | 58 | 53 | 0.0 | 2.0 | 0.00 | 0.00 | 0.00 | 74 | 1011.3 |
| 20260505101506 | 58 | 169 | 0.0 | 0.0 | 0.00 | 0.00 | 0.00 | 76 | 1010.6 |
| 20260505094613 | 58 | 53 | 0.0 | 3.0 | 0.00 | 0.00 | 0.00 | 81 | 1010.2 |
| 20260505093022 | 57 | 196 | 0.0 | 0.0 | 0.00 | 0.00 | 0.00 | 86 | 1010.2 |
| 20260505091513 | 58 | 196 | 0.0 | 0.0 | 0.00 | 0.00 | 0.00 | 86 | 1010.0 |
| 20260505090053 | 58 | 196 | 0.0 | 0.0 | 0.00 | 0.00 | 0.00 | 84 | 1009.9 |
| 20260505084552 | 58 | 196 | 0.0 | 0.0 | 0.00 | 0.00 | 0.00 | 81 | 1009.7 |
| 20260505083049 | 59 | 196 | 0.0 | 0.0 | 0.00 | 0.00 | 0.00 | 77 | 1009.5 |
| 20260505081642 | 60 | 196 | 0.0 | 0.0 | 0.00 | 0.00 | 0.00 | 76 | 1009.3 |
| 20260505080035 | 60 | 196 | 0.0 | 0.0 | 0.00 | 0.00 | 0.00 | 76 | 1009.3 |
| 20260505074534 | 60 | 197 | 0.0 | 0.0 | 0.00 | 0.00 | 0.00 | 77 | 1009.2 |
| 20260505073036 | 60 | 196 | 0.0 | 0.0 | 0.00 | 0.00 | 0.00 | 76 | 1009.0 |
| 20260505071529 | 61 | 197 | 0.0 | 0.0 | 0.00 | 0.00 | 0.00 | 76 | 1008.7 |
| 20260505070033 | 61 | 197 | 0.0 | 0.0 | 0.00 | 0.00 | 0.00 | 77 | 1008.5 |
| 20260505063030 | 62 | 196 | 0.0 | 0.0 | 0.00 | 0.00 | 0.00 | 75 | 1008.3 |
| 20260505061525 | 63 | 196 | 0.0 | 0.0 | 0.00 | 0.00 | 0.00 | 75 | 1008.2 |
| 20260505060030 | 63 | 197 | 0.0 | 0.0 | 0.00 | 0.00 | 0.00 | 73 | 1008.1 |
| 20260505054525 | 64 | 197 | 0.0 | 0.0 | 0.00 | 0.00 | 0.00 | 73 | 1008.1 |
| 20260505053022 | 64 | 197 | 0.0 | 0.0 | 0.00 | 0.00 | 0.00 | 71 | 1008.1 |
| 20260505051522 | 65 | 196 | 0.0 | 0.0 | 0.00 | 0.00 | 0.00 | 69 | 1007.9 |
| 20260505041539 | 68 | 196 | 0.0 | 0.0 | 0.00 | 0.00 | 0.00 | 62 | 1007.5 |
| 20260505040017 | 69 | 196 | 0.0 | 0.0 | 0.00 | 0.00 | 0.00 | 61 | 1007.2 |
| 20260505034524 | 70 | 196 | 0.0 | 0.0 | 0.00 | 0.00 | 0.00 | 59 | 1007.1 |
| 20260505033016 | 71 | 196 | 0.0 | 0.0 | 0.00 | 0.00 | 0.00 | 57 | 1006.9 |
| 20260505031517 | 72 | 196 | 0.0 | 0.0 | 0.00 | 0.00 | 0.00 | 55 | 1006.9 |
| 20260505030015 | 72 | 229 | 0.0 | 0.0 | 0.00 | 0.00 | 0.00 | 51 | 1006.8 |
| 20260505024515 | 73 | 229 | 0.0 | 0.0 | 0.00 | 0.00 | 0.00 | 51 | 1006.7 |
| 20260505023014 | 74 | 229 | 0.0 | 0.0 | 0.00 | 0.00 | 0.00 | 47 | 1006.7 |
| 20260505021513 | 75 | 229 | 0.0 | 1.0 | 0.00 | 0.00 | 0.00 | 45 | 1006.9 |
| 20260505020013 | 76 | 192 | 0.0 | 0.0 | 0.00 | 0.00 | 0.00 | 45 | 1006.8 |
| 20260505014512 | 77 | 202 | 0.0 | 0.0 | 0.00 | 0.00 | 0.00 | 45 | 1006.8 |
| 20260505013010 | 78 | 109 | 0.0 | 2.0 | 0.00 | 0.00 | 0.00 | 43 | 1006.9 |
| 20260505011509 | 79 | 181 | 0.0 | 2.0 | 0.00 | 0.00 | 0.00 | 43 | 1006.9 |
| 20260505010014 | 81 | 113 | 0.0 | 1.0 | 0.00 | 0.00 | 0.00 | 41 | 1007.0 |
| 20260505004507 | 82 | 198 | 0.0 | 1.0 | 0.00 | 0.00 | 0.00 | 37 | 1007.0 |
| 20260505003005 | 84 | 148 | 0.0 | 2.0 | 0.00 | 0.00 | 0.00 | 33 | 1007.0 |
| 20260505001508 | 85 | 130 | 0.0 | 4.0 | 0.00 | 0.00 | 0.00 | 30 | 1006.9 |
| 20260505000003 | 86 | 233 | 0.0 | 3.0 | 0.00 | 0.00 | 0.00 | 26 | 1007.0 |
| 20260504234501 | 87 | 195 | 0.0 | 4.0 | 0.00 | 0.00 | 0.00 | 25 | 1007.1 |
| 20260504233112 | 87 | 155 | 0.0 | 3.0 | 0.00 | 0.00 | 0.00 | 25 | 1007.2 |
| 20260504231559 | 87 | 135 | 0.0 | 5.0 | 0.00 | 0.00 | 0.00 | 29 | 1007.3 |
| 20260504230057 | 88 | 212 | 0.0 | 3.0 | 0.00 | 0.00 | 0.00 | 29 | 1007.4 |
| 20260504224553 | 86 | 303 | 0.0 | 4.0 | 0.00 | 0.00 | 0.00 | 32 | 1007.5 |
| 20260504223052 | 87 | 311 | 0.0 | 3.0 | 0.00 | 0.00 | 0.00 | 33 | 1007.6 |
| 20260504221547 | 86 | 124 | 0.0 | 4.0 | 0.00 | 0.00 | 0.00 | 33 | 1007.7 |
| 20260504220048 | 85 | 55 | 1.0 | 6.0 | 0.00 | 0.00 | 0.00 | 33 | 1007.8 |
| 20260504214545 | 85 | 290 | 0.0 | 3.0 | 0.00 | 0.00 | 0.00 | 33 | 1007.9 |
| 20260504213048 | 86 | 82 | 0.0 | 3.0 | 0.00 | 0.00 | 0.00 | 33 | 1008.0 |
| 20260504211542 | 85 | 121 | 0.0 | 3.0 | 0.00 | 0.00 | 0.00 | 33 | 1008.0 |
| 20260504210042 | 85 | 297 | 0.0 | 3.0 | 0.00 | 0.00 | 0.00 | 33 | 1008.2 |
| 20260504204542 | 84 | 55 | 0.0 | 3.0 | 0.00 | 0.00 | 0.00 | 36 | 1008.4 |
| 20260504203048 | 83 | 316 | 3.0 | 7.0 | 0.00 | 0.00 | 0.00 | 34 | 1008.4 |
| 20260504201543 | 84 | 9 | 1.0 | 6.0 | 0.00 | 0.00 | 0.00 | 34 | 1008.4 |
| 20260504200040 | 85 | 98 | 0.0 | 5.0 | 0.00 | 0.00 | 0.00 | 33 | 1008.5 |
| 20260504194540 | 84 | 115 | 0.0 | 2.0 | 0.00 | 0.00 | 0.00 | 34 | 1008.7 |